Volver al catálogo

CZ-6A DEB

ActivoPO
NORAD 61486·DEBRIS·🇨🇳 China

Lanzado Aug 6, 2024 desde Taiyuan Satellite Launch Center

Loading…

Próximos Pases (próximas 24 horas)

TLE

ActualizadoSource: Space-Track

Época: Sep 14, 2026, 12:08 UTC

1 61486U 24140AAU 26257.50589637  .00535465  00000-0  77982-2 0  9994
2 61486  89.1641 275.5858 0024957 126.5737 233.7829 15.53602955108806

Sigue CZ-6A DEB en tiempo real con AllMySat

Download on the App Store